ProjectID,Date,Electric Generation,Electric Utility Import,Facility Electric Load
,YYYY-MM-DD,kW,kW,kW
204,2014-09-12,161.375,,161.375
204,2014-09-13,40.791666666666664,,40.791666666666664
204,2014-09-14,159.45833333333334,,159.45833333333334
204,2014-09-15,159.45833333333334,,159.45833333333334
204,2014-09-16,68.70833333333333,,68.70833333333333
204,2014-09-17,159.5,,159.5
204,2014-09-18,136.66666666666666,,136.66666666666666
204,2014-09-19,157.625,,157.625
204,2014-09-20,119.45833333333333,,119.45833333333333
204,2014-09-21,57.291666666666664,,57.291666666666664
204,2014-09-22,127.29166666666667,,127.29166666666667
204,2014-09-23,151.125,,151.125
204,2014-09-24,100.66666666666667,,100.66666666666667
204,2014-09-25,45.166666666666664,,45.166666666666664
204,2014-09-26,149.29166666666666,,149.29166666666666
204,2014-09-27,143.66666666666666,,143.66666666666666
204,2014-09-28,127.41666666666667,,127.41666666666667
204,2014-09-29,59.916666666666664,,59.916666666666664
204,2014-09-30,32.083333333333336,,32.083333333333336
204,2014-10-01,18.541666666666668,,18.541666666666668
204,2014-10-02,63.416666666666664,,63.416666666666664
204,2014-10-03,141.625,,141.625
204,2014-10-04,31.666666666666668,,31.666666666666668
204,2014-10-05,149.20833333333334,,149.20833333333334
204,2014-10-06,141.79166666666666,,141.79166666666666
204,2014-10-07,77.0,,77.0
204,2014-10-08,103.91666666666667,,103.91666666666667
204,2014-10-09,103.125,,103.125
204,2014-10-10,79.375,,79.375
204,2014-10-11,23.166666666666668,,23.166666666666668
204,2014-10-12,139.125,,139.125
204,2014-10-13,35.166666666666664,,35.166666666666664
204,2014-10-14,125.625,,125.625
204,2014-10-15,58.625,,58.625
204,2014-10-16,65.20833333333333,,65.20833333333333
204,2014-10-17,115.20833333333333,,115.20833333333333
204,2014-10-18,55.041666666666664,,55.041666666666664
204,2014-10-19,109.66666666666667,,109.66666666666667
204,2014-10-20,106.5,,106.5
204,2014-10-21,77.83333333333333,,77.83333333333333
204,2014-10-22,13.041666666666666,,13.041666666666666
204,2014-10-23,16.25,,16.25
204,2014-10-24,53.125,,53.125
204,2014-10-25,115.375,,115.375
204,2014-10-26,91.75,,91.75
204,2014-10-27,118.41666666666667,,118.41666666666667
204,2014-10-28,79.04166666666667,,79.04166666666667
204,2014-10-29,57.541666666666664,,57.541666666666664
204,2014-10-30,106.91666666666667,,106.91666666666667
204,2014-10-31,43.75,,43.75
204,2014-11-01,9.125,,9.125
204,2014-11-02,105.54166666666667,,105.54166666666667
204,2014-11-03,108.79166666666667,,108.79166666666667
204,2014-11-04,99.375,,99.375
204,2014-11-05,31.125,,31.125
204,2014-11-06,6.166666666666667,,6.166666666666667
204,2014-11-07,68.25,,68.25
204,2014-11-08,98.95833333333333,,98.95833333333333
204,2014-11-09,65.70833333333333,,65.70833333333333
204,2014-11-10,95.25,,95.25
204,2014-11-11,58.052166666666665,,58.052166666666665
204,2014-11-12,45.15633333333333,,45.15633333333333
204,2014-11-13,61.958333333333336,,61.958333333333336
204,2014-11-14,104.83333333333333,,104.83333333333333
204,2014-11-15,100.16666666666667,,100.16666666666667
204,2014-11-16,20.333333333333332,,20.333333333333332
204,2014-11-17,7.166666666666667,,7.166666666666667
204,2014-11-18,109.36779166666668,,109.36779166666668
204,2014-11-19,93.38208333333334,,93.38208333333334
204,2014-11-20,73.25,,73.25
204,2014-11-21,124.008625,,124.008625
204,2014-11-22,63.075208333333336,,63.075208333333336
204,2014-11-23,70.83333333333333,,70.83333333333333
204,2014-11-24,43.458333333333336,,43.458333333333336
204,2014-11-25,27.125,,27.125
204,2014-11-26,2.0,,2.0
204,2014-11-27,18.083333333333332,,18.083333333333332
204,2014-11-28,66.0,,66.0
204,2014-11-29,38.291666666666664,,38.291666666666664
204,2014-11-30,45.916666666666664,,45.916666666666664
204,2014-12-01,46.0,,46.0
204,2014-12-02,17.208333333333332,,17.208333333333332
204,2014-12-03,28.397166666666667,,28.397166666666667
204,2014-12-04,50.50266666666667,,50.50266666666667
204,2014-12-05,43.731,,43.731
204,2014-12-06,37.23533333333334,,37.23533333333334
204,2014-12-07,37.236,,37.236
204,2014-12-08,24.355249999999998,,24.355249999999998
204,2014-12-09,20.811916666666665,,20.811916666666665
204,2014-12-10,42.176,,42.176
204,2014-12-11,42.17666666666667,,42.17666666666667
204,2014-12-12,42.176,,42.176
204,2014-12-13,42.176,,42.176
204,2014-12-14,42.17666666666667,,42.17666666666667
204,2014-12-15,72.97470833333334,,72.97470833333334
204,2014-12-16,19.25,,19.25
204,2014-12-17,51.125,,51.125
204,2014-12-18,59.708333333333336,,59.708333333333336
204,2014-12-19,56.208333333333336,,56.208333333333336
204,2014-12-20,15.041666666666666,,15.041666666666666
204,2014-12-21,18.958333333333332,,18.958333333333332
204,2014-12-22,15.416666666666666,,15.416666666666666
204,2014-12-23,11.0,,11.0
204,2014-12-24,6.583333333333333,,6.583333333333333
204,2014-12-25,49.041666666666664,,49.041666666666664
204,2014-12-26,78.625,,78.625
204,2014-12-27,72.25,,72.25
204,2014-12-28,25.75,,25.75
204,2014-12-29,66.41666666666667,,66.41666666666667
204,2014-12-30,41.666666666666664,,41.666666666666664
204,2014-12-31,73.04166666666667,,73.04166666666667
204,2015-01-01,80.70833333333333,,80.70833333333333
204,2015-01-02,68.20833333333333,,68.20833333333333
204,2015-01-03,17.541666666666668,,17.541666666666668
204,2015-01-04,11.791666666666666,,11.791666666666666
204,2015-01-05,80.04166666666667,,80.04166666666667
204,2015-01-06,2.1666666666666665,,2.1666666666666665
204,2015-01-07,50.416666666666664,,50.416666666666664
204,2015-01-08,86.125,,86.125
204,2015-01-09,32.458333333333336,,32.458333333333336
204,2015-01-10,92.16666666666667,,92.16666666666667
204,2015-01-11,48.041666666666664,,48.041666666666664
204,2015-01-12,5.416666666666667,,5.416666666666667
204,2015-01-13,95.95833333333333,,95.95833333333333
204,2015-01-14,50.583333333333336,,50.583333333333336
204,2015-01-15,76.5,,76.5
204,2015-01-16,75.5,,75.5
204,2015-01-17,93.20833333333333,,93.20833333333333
204,2015-01-18,3.1666666666666665,,3.1666666666666665
204,2015-01-19,43.625,,43.625
204,2015-01-20,62.958333333333336,,62.958333333333336
204,2015-01-21,56.083333333333336,,56.083333333333336
204,2015-01-22,64.875,,64.875
204,2015-01-23,94.91666666666667,,94.91666666666667
204,2015-01-24,0.041666666666666664,,0.041666666666666664
204,2015-01-25,34.625,,34.625
204,2015-01-26,14.125,,14.125
204,2015-01-27,16.875,,16.875
204,2015-01-28,61.75,,61.75
204,2015-01-29,48.333333333333336,,48.333333333333336
204,2015-01-30,17.958333333333332,,17.958333333333332
204,2015-01-31,79.08333333333333,,79.08333333333333
204,2015-02-01,47.041666666666664,,47.041666666666664
204,2015-02-02,0.0,,0.0
204,2015-02-03,0.9166666666666666,,0.9166666666666666
204,2015-02-04,0.20833333333333334,,0.20833333333333334
204,2015-02-05,2.5416666666666665,,2.5416666666666665
204,2015-02-06,2.9166666666666665,,2.9166666666666665
204,2015-02-07,0.20833333333333334,,0.20833333333333334
204,2015-02-08,0.375,,0.375
204,2015-02-09,0.16666666666666666,,0.16666666666666666
204,2015-02-10,3.8333333333333335,,3.8333333333333335
204,2015-02-11,13.875,,13.875
204,2015-02-12,14.0,,14.0
204,2015-02-13,58.166666666666664,,58.166666666666664
204,2015-02-14,11.583333333333334,,11.583333333333334
204,2015-02-15,52.958333333333336,,52.958333333333336
204,2015-02-16,57.833333333333336,,57.833333333333336
204,2015-02-17,4.958333333333333,,4.958333333333333
204,2015-02-18,28.375,,28.375
204,2015-02-19,51.666625,,51.666625
204,2015-02-20,78.91666666666667,,78.91666666666667
204,2015-02-21,22.125,,22.125
204,2015-02-22,5.708333333333333,,5.708333333333333
204,2015-02-23,18.583333333333332,,18.583333333333332
204,2015-02-24,32.375,,32.375
204,2015-02-25,53.208333333333336,,53.208333333333336
204,2015-02-26,39.375,,39.375
204,2015-02-27,80.04166666666667,,80.04166666666667
204,2015-02-28,84.33333333333333,,84.33333333333333
204,2015-03-01,16.333333333333332,,16.333333333333332
204,2015-03-02,0.8126666666666668,,0.8126666666666668
204,2015-03-03,0.6875833333333333,,0.6875833333333333
204,2015-03-04,3.875,,3.875
204,2015-03-05,0.0,,0.0
204,2015-03-06,3.8333333333333335,,3.8333333333333335
204,2015-03-07,12.458333333333334,,12.458333333333334
204,2015-03-08,57.625,,57.625
204,2015-03-09,118.95833333333333,,118.95833333333333
204,2015-03-10,59.333333333333336,,59.333333333333336
204,2015-03-11,123.95833333333333,,123.95833333333333
204,2015-03-12,167.20833333333334,,167.20833333333334
204,2015-03-13,153.70833333333334,,153.70833333333334
204,2015-03-14,21.208333333333332,,21.208333333333332
204,2015-03-15,38.458333333333336,,38.458333333333336
204,2015-03-16,100.5,,100.5
204,2015-03-17,84.375,,84.375
204,2015-03-18,126.20833333333333,,126.20833333333333
204,2015-03-19,172.375,,172.375
204,2015-03-20,28.916666666666668,,28.916666666666668
204,2015-03-21,44.25,,44.25
204,2015-03-22,180.66666666666666,,180.66666666666666
204,2015-03-23,183.70833333333334,,183.70833333333334
204,2015-03-24,164.625,,164.625
204,2015-03-25,100.95833333333333,,100.95833333333333
204,2015-03-26,37.416666666666664,,37.416666666666664
204,2015-03-27,44.791666666666664,,44.791666666666664
204,2015-03-28,57.458333333333336,,57.458333333333336
204,2015-03-29,189.33333333333334,,189.33333333333334
204,2015-03-30,83.0,,83.0
204,2015-03-31,73.375,,73.375
204,2015-04-01,173.83333333333334,,173.83333333333334
204,2015-04-02,162.58333333333334,,162.58333333333334
204,2015-04-03,32.875,,32.875
204,2015-04-04,185.875,,185.875
204,2015-04-05,115.08333333333333,,115.08333333333333
204,2015-04-06,175.54166666666666,,175.54166666666666
204,2015-04-07,48.583333333333336,,48.583333333333336
204,2015-04-08,32.583333333333336,,32.583333333333336
204,2015-04-09,46.791666666666664,,46.791666666666664
204,2015-04-10,48.333333333333336,,48.333333333333336
204,2015-04-11,189.95833333333334,,189.95833333333334
204,2015-04-12,186.0,,186.0
204,2015-04-13,168.875,,168.875
204,2015-04-14,52.208333333333336,,52.208333333333336
204,2015-04-15,178.58333333333334,,178.58333333333334
204,2015-04-16,175.66666666666666,,175.66666666666666
204,2015-04-17,94.83333333333333,,94.83333333333333
204,2015-04-18,178.79166666666666,,178.79166666666666
204,2015-04-19,180.66666666666666,,180.66666666666666
204,2015-04-20,21.75,,21.75
204,2015-04-21,163.04166666666666,,163.04166666666666
204,2015-04-22,137.58333333333334,,137.58333333333334
204,2015-04-23,111.66666666666667,,111.66666666666667
204,2015-04-24,158.125,,158.125
204,2015-04-25,198.45833333333334,,198.45833333333334
204,2015-04-26,144.29166666666666,,144.29166666666666
204,2015-04-27,120.5,,120.5
204,2015-04-28,192.75,,192.75
204,2015-04-29,184.20833333333334,,184.20833333333334
204,2015-04-30,199.75,,199.75
204,2015-05-01,170.79166666666666,,170.79166666666666
204,2015-05-02,195.25,,195.25
204,2015-05-03,186.08333333333334,,186.08333333333334
204,2015-05-04,182.16666666666666,,182.16666666666666
204,2015-05-05,123.5,,123.5
204,2015-05-06,74.66666666666667,,74.66666666666667
204,2015-05-07,191.83333333333334,,191.83333333333334
204,2015-05-08,189.66666666666666,,189.66666666666666
204,2015-05-09,78.16666666666667,,78.16666666666667
204,2015-05-10,159.83333333333334,,159.83333333333334
204,2015-05-11,136.54166666666666,,136.54166666666666
204,2015-05-12,151.375,,151.375
204,2015-05-13,152.41666666666666,,152.41666666666666
204,2015-05-14,197.625,,197.625
204,2015-05-15,156.91666666666666,,156.91666666666666
204,2015-05-16,103.25,,103.25
204,2015-05-17,136.54166666666666,,136.54166666666666
204,2015-05-18,50.458333333333336,,50.458333333333336
204,2015-05-19,122.375,,122.375
204,2015-05-20,163.70833333333334,,163.70833333333334
204,2015-05-21,99.125,,99.125
204,2015-05-22,143.33333333333334,,143.33333333333334
204,2015-05-23,211.04166666666666,,211.04166666666666
204,2015-05-24,185.08333333333334,,185.08333333333334
204,2015-05-25,177.33333333333334,,177.33333333333334
204,2015-05-26,180.70833333333334,,180.70833333333334
204,2015-05-27,165.20833333333334,,165.20833333333334
204,2015-05-28,162.16666666666666,,162.16666666666666
204,2015-05-29,190.0,,190.0
204,2015-05-30,193.79166666666666,,193.79166666666666
204,2015-05-31,115.58333333333333,,115.58333333333333
204,2015-06-01,37.0,,37.0
204,2015-06-02,36.625,,36.625
204,2015-06-03,199.0,,199.0
204,2015-06-04,125.70833333333333,,125.70833333333333
204,2015-06-05,90.625,,90.625
204,2015-06-06,145.58333333333334,,145.58333333333334
204,2015-06-07,207.70833333333334,,207.70833333333334
204,2015-06-08,152.25,,152.25
204,2015-06-09,113.25,,113.25
204,2015-06-10,191.95833333333334,,191.95833333333334
204,2015-06-11,149.16666666666666,,149.16666666666666
204,2015-06-12,167.04166666666666,,167.04166666666666
204,2015-06-13,187.83333333333334,,187.83333333333334
204,2015-06-14,139.14341666666667,,139.14341666666667
204,2015-06-15,92.80512499999999,,92.80512499999999
204,2015-06-16,118.88554166666667,,118.88554166666667
204,2015-06-17,147.79166666666666,,147.79166666666666
204,2015-06-18,67.04166666666667,,67.04166666666667
204,2015-06-19,149.45833333333334,,149.45833333333334
204,2015-06-20,42.125,,42.125
204,2015-06-21,141.125,,141.125
204,2015-06-22,190.5,,190.5
204,2015-06-23,130.58333333333334,,130.58333333333334
204,2015-06-24,204.75,,204.75
204,2015-06-25,153.79166666666666,,153.79166666666666
204,2015-06-26,178.08333333333334,,178.08333333333334
204,2015-06-27,51.875,,51.875
204,2015-06-28,70.66666666666667,,70.66666666666667
204,2015-06-29,119.20833333333333,,119.20833333333333
204,2015-06-30,169.41666666666666,,169.41666666666666
204,2015-07-01,156.66666666666666,,156.66666666666666
204,2015-07-02,115.91666666666667,,115.91666666666667
204,2015-07-03,178.16666666666666,,178.16666666666666
204,2015-07-04,103.125,,103.125
204,2015-07-05,175.95833333333334,,175.95833333333334
204,2015-07-06,137.625,,137.625
204,2015-07-07,141.58333333333334,,141.58333333333334
204,2015-07-08,97.875,,97.875
204,2015-07-09,98.70833333333333,,98.70833333333333
204,2015-07-10,186.83333333333334,,186.83333333333334
204,2015-07-11,169.0,,169.0
204,2015-07-12,166.08333333333334,,166.08333333333334
204,2015-07-13,166.33333333333334,,166.33333333333334
204,2015-07-14,81.625,,81.625
204,2015-07-15,58.375,,58.375
204,2015-07-16,197.625,,197.625
204,2015-07-17,187.58333333333334,,187.58333333333334
204,2015-07-18,97.875,,97.875
204,2015-07-19,170.70833333333334,,170.70833333333334
204,2015-07-20,156.83333333333334,,156.83333333333334
204,2015-07-21,98.875,,98.875
204,2015-07-22,185.20833333333334,,185.20833333333334
204,2015-07-23,187.45833333333334,,187.45833333333334
204,2015-07-24,183.5,,183.5
204,2015-07-25,181.54166666666666,,181.54166666666666
204,2015-07-26,140.04166666666666,,140.04166666666666
204,2015-07-27,126.75,,126.75
204,2015-07-28,150.41666666666666,,150.41666666666666
204,2015-07-29,156.20833333333334,,156.20833333333334
204,2015-07-30,55.375,,55.375
204,2015-07-31,181.0,,181.0
204,2015-08-01,161.95833333333334,,161.95833333333334
204,2015-08-02,156.83333333333334,,156.83333333333334
204,2015-08-03,172.75,,172.75
204,2015-08-04,183.41670833333333,,183.41670833333333
204,2015-08-05,147.375,,147.375
204,2015-08-06,159.66666666666666,,159.66666666666666
204,2015-08-07,189.08333333333334,,189.08333333333334
204,2015-08-08,153.08333333333334,,153.08333333333334
204,2015-08-09,174.20833333333334,,174.20833333333334
204,2015-08-10,162.66666666666666,,162.66666666666666
204,2015-08-11,39.708333333333336,,39.708333333333336
204,2015-08-12,160.125,,160.125
204,2015-08-13,154.95833333333334,,154.95833333333334
204,2015-08-14,174.125,,174.125
204,2015-08-15,166.91666666666666,,166.91666666666666
204,2015-08-16,134.08333333333334,,134.08333333333334
204,2015-08-17,123.04166666666667,,123.04166666666667
204,2015-08-18,160.95833333333334,,160.95833333333334
204,2015-08-19,150.875,,150.875
204,2015-08-20,110.66666666666667,,110.66666666666667
204,2015-08-21,140.5,,140.5
204,2015-08-22,173.41666666666666,,173.41666666666666
204,2015-08-23,141.5,,141.5
204,2015-08-24,145.45833333333334,,145.45833333333334
204,2015-08-25,151.5,,151.5
204,2015-08-26,169.41666666666666,,169.41666666666666
204,2015-08-27,155.875,,155.875
204,2015-08-28,164.70833333333334,,164.70833333333334
204,2015-08-29,156.41666666666666,,156.41666666666666
204,2015-08-30,125.95833333333333,,125.95833333333333
204,2015-08-31,105.54166666666667,,105.54166666666667
204,2015-09-01,152.83333333333334,,152.83333333333334
204,2015-09-02,135.95833333333334,,135.95833333333334
204,2015-09-03,140.125,,140.125
204,2015-09-04,113.20833333333333,,113.20833333333333
204,2015-09-05,168.0,,168.0
204,2015-09-06,157.75,,157.75
204,2015-09-07,154.41666666666666,,154.41666666666666
204,2015-09-08,142.83333333333334,,142.83333333333334
204,2015-09-09,108.66666666666667,,108.66666666666667
204,2015-09-10,33.416666666666664,,33.416666666666664
204,2015-09-11,125.45833333333333,,125.45833333333333
204,2015-09-12,71.25,,71.25
204,2015-09-13,109.54166666666667,,109.54166666666667
204,2015-09-14,163.04166666666666,,163.04166666666666
204,2015-09-15,154.66666666666666,,154.66666666666666
204,2015-09-16,149.45833333333334,,149.45833333333334
204,2015-09-17,145.04166666666666,,145.04166666666666
204,2015-09-18,148.0,,148.0
204,2015-09-19,142.29166666666666,,142.29166666666666
204,2015-09-20,140.04166666666666,,140.04166666666666
204,2015-09-21,134.66666666666666,,134.66666666666666
204,2015-09-22,71.08333333333333,,71.08333333333333
204,2015-09-23,146.58333333333334,,146.58333333333334
204,2015-09-24,149.04166666666666,,149.04166666666666
204,2015-09-25,138.79166666666666,,138.79166666666666
204,2015-09-26,136.41666666666666,,136.41666666666666
204,2015-09-27,103.04166666666667,,103.04166666666667
204,2015-09-28,88.04166666666667,,88.04166666666667
204,2015-09-29,85.54166666666667,,85.54166666666667
204,2015-09-30,37.708333333333336,,37.708333333333336
204,2015-10-01,34.041666666666664,,34.041666666666664
204,2015-10-02,24.0,,24.0
204,2015-10-03,13.833333333333334,,13.833333333333334
204,2015-10-04,108.20833333333333,,108.20833333333333
204,2015-10-05,129.75,,129.75
204,2015-10-06,137.08333333333334,,137.08333333333334
204,2015-10-07,119.25,,119.25
204,2015-10-08,100.625,,100.625
204,2015-10-09,81.66666666666667,,81.66666666666667
204,2015-10-10,141.375,,141.375
204,2015-10-11,133.29166666666666,,133.29166666666666
204,2015-10-12,130.375,,130.375
204,2015-10-13,84.375,,84.375
204,2015-10-14,87.83333333333333,,87.83333333333333
204,2015-10-15,130.75,,130.75
204,2015-10-16,102.45833333333333,,102.45833333333333
204,2015-10-17,110.20833333333333,,110.20833333333333
204,2015-10-18,101.16666666666667,,101.16666666666667
204,2015-10-19,128.33333333333334,,128.33333333333334
204,2015-10-20,115.33333333333333,,115.33333333333333
204,2015-10-21,110.70833333333333,,110.70833333333333
204,2015-10-22,85.45833333333333,,85.45833333333333
204,2015-10-23,123.16666666666667,,123.16666666666667
204,2015-10-24,56.125,,56.125
204,2015-10-25,55.958333333333336,,55.958333333333336
204,2015-10-26,121.25,,121.25
204,2015-10-27,69.45833333333333,,69.45833333333333
204,2015-10-28,10.958333333333334,,10.958333333333334
204,2015-10-29,90.95833333333333,,90.95833333333333
204,2015-10-30,116.33333333333333,,116.33333333333333
204,2015-10-31,89.125,,89.125
204,2015-11-01,39.125,,39.125
204,2015-11-02,56.791666666666664,,56.791666666666664
204,2015-11-03,102.375,,102.375
204,2015-11-04,101.83333333333333,,101.83333333333333
204,2015-11-05,31.458333333333332,,31.458333333333332
204,2015-11-06,47.916666666666664,,47.916666666666664
204,2015-11-07,30.5,,30.5
204,2015-11-08,105.83333333333333,,105.83333333333333
204,2015-11-09,88.08333333333333,,88.08333333333333
204,2015-11-10,10.833333333333334,,10.833333333333334
204,2015-11-11,39.458333333333336,,39.458333333333336
204,2015-11-12,12.125,,12.125
204,2015-11-13,97.29170833333335,,97.29170833333335
204,2015-11-14,102.0,,102.0
204,2015-11-15,91.95833333333333,,91.95833333333333
204,2015-11-16,89.58333333333333,,89.58333333333333
204,2015-11-17,98.70833333333333,,98.70833333333333
204,2015-11-18,46.083333333333336,,46.083333333333336
204,2015-11-19,21.416666666666668,,21.416666666666668
204,2015-11-20,93.375,,93.375
204,2015-11-21,94.125,,94.125
204,2015-11-22,24.5,,24.5
204,2015-11-23,85.16666666666667,,85.16666666666667
204,2015-11-24,72.54166666666667,,72.54166666666667
204,2015-11-25,86.95833333333333,,86.95833333333333
204,2015-11-26,71.70833333333333,,71.70833333333333
204,2015-11-27,75.33333333333333,,75.33333333333333
204,2015-11-28,21.791666666666668,,21.791666666666668
204,2015-11-29,76.16666666666667,,76.16666666666667
204,2015-11-30,73.79166666666667,,73.79166666666667
204,2015-12-01,9.125,,9.125
204,2015-12-02,11.333333333333334,,11.333333333333334
204,2015-12-03,48.833333333333336,,48.833333333333336
204,2015-12-04,81.83333333333333,,81.83333333333333
204,2015-12-05,77.5,,77.5
204,2015-12-06,77.45833333333333,,77.45833333333333
204,2015-12-07,71.33333333333333,,71.33333333333333
204,2015-12-08,58.541666666666664,,58.541666666666664
204,2015-12-09,19.083333333333332,,19.083333333333332
204,2015-12-10,68.16666666666667,,68.16666666666667
204,2015-12-11,49.416666666666664,,49.416666666666664
204,2015-12-12,39.625,,39.625
204,2015-12-13,56.916666666666664,,56.916666666666664
204,2015-12-14,16.333333333333332,,16.333333333333332
204,2015-12-15,76.0,,76.0
204,2015-12-16,75.5,,75.5
204,2015-12-17,4.333333333333333,,4.333333333333333
204,2015-12-18,16.583333333333332,,16.583333333333332
204,2015-12-19,69.83333333333333,,69.83333333333333
204,2015-12-20,79.25,,79.25
204,2015-12-21,27.166666666666668,,27.166666666666668
204,2015-12-22,6.416666666666667,,6.416666666666667
204,2015-12-23,7.333333333333333,,7.333333333333333
204,2015-12-24,18.083333333333332,,18.083333333333332
204,2015-12-25,28.875,,28.875
204,2015-12-26,18.416666666666668,,18.416666666666668
204,2015-12-27,11.0,,11.0
204,2015-12-28,55.0,,55.0
204,2015-12-29,9.875,,9.875
204,2015-12-30,8.791666666666666,,8.791666666666666
204,2015-12-31,29.666666666666668,,29.666666666666668
204,2016-01-01,26.083333333333332,,26.083333333333332
204,2016-01-02,61.208333333333336,,61.208333333333336
204,2016-01-03,78.91666666666667,,78.91666666666667
204,2016-01-04,80.83333333333333,,80.83333333333333
204,2016-01-05,91.45833333333333,,91.45833333333333
204,2016-01-06,84.58333333333333,,84.58333333333333
204,2016-01-07,64.04166666666667,,64.04166666666667
204,2016-01-08,60.5,,60.5
204,2016-01-09,27.666666666666668,,27.666666666666668
204,2016-01-10,20.916666666666668,,20.916666666666668
204,2016-01-11,92.16666666666667,,92.16666666666667
204,2016-01-12,39.833333333333336,,39.833333333333336
204,2016-01-13,93.91666666666667,,93.91666666666667
204,2016-01-14,51.791666666666664,,51.791666666666664
204,2016-01-15,52.958333333333336,,52.958333333333336
204,2016-01-16,52.0,,52.0
204,2016-01-17,15.416666666666666,,15.416666666666666
204,2016-01-18,91.08333333333333,,91.08333333333333
204,2016-01-19,97.625,,97.625
204,2016-01-20,83.0,,83.0
204,2016-01-21,94.875,,94.875
204,2016-01-22,52.541666666666664,,52.541666666666664
204,2016-01-23,0.5833333333333334,,0.5833333333333334
204,2016-01-24,19.25,,19.25
204,2016-01-25,17.875,,17.875
204,2016-01-26,22.541666666666668,,22.541666666666668
204,2016-01-27,45.375,,45.375
204,2016-01-28,64.20833333333333,,64.20833333333333
204,2016-01-29,23.416666666666668,,23.416666666666668
204,2016-01-30,67.0,,67.0
204,2016-01-31,67.33333333333333,,67.33333333333333
204,2016-02-01,39.416666666666664,,39.416666666666664